Location: ?
(35.4064°N, 139.3593°E)
Time: 04:21:07
(UTC+00:00)

Cosmos 1470 Rocket - Pass Details

Date: 18 April 2024
Orbit: 601 x 629 km, 82.5° (Epoch: 20 May)

Event Time Altitude Azimuth Distance (km) Brightness Sun altitude
Rises 18:35:23 0° 349° (N) 2,898 7.2 -17.8°
Reaches altitude 10° 18:37:38 10° 346° (NNW) 1,992 6.3 -17.4°
Maximum altitude 18:42:00 64° 266° (W) 693 3.5 -16.7°
Drops below altitude 10° 18:46:22 10° 185° (S) 1,993 5.9 -15.9°
Enters shadow 18:47:00 - 184° (S) 2,247 6.1 -15.7°
